This is the latest recevied weather packets stored in our database for station/object ZL3GL-4. If no packets are shown the sender has not sent any weather packets the latest 10 day(s).
| Time | Temp. | Humidity | Pressure | Rain* | Wind** | Luminosity | Snow |
|---|---|---|---|---|---|---|---|
| 1778170385 | 12.22° C | 100% | 1003.1 hPa | 0 mm | 2.24 m/s, 242° | - | - |
| 1778169536 | 12.78° C | 100% | 1003.3 hPa | 0 mm | 4.02 m/s, 232° | - | - |
| 1778168691 | 12.22° C | 100% | 1003.3 hPa | 0 mm | 2.24 m/s, 229° | - | - |
| 1778167005 | 11.67° C | 100% | 1003.2 hPa | 0 mm | 2.68 m/s, 264° | - | - |
| 1778166161 | 11.67° C | 100% | 1003.4 hPa | 0 mm | 0.89 m/s, 263° | - | - |
| 1778164476 | 11.67° C | 100% | 1003.6 hPa | 0 mm | 1.79 m/s, 212° | - | - |
| 1778163632 | 11.67° C | 100% | 1003.7 hPa | 0 mm | 1.34 m/s, 212° | - | - |
| 1778162795 | 11.11° C | 100% | 1003.7 hPa | 0 mm | 1.34 m/s, 207° | - | - |
| 1778161946 | 11.11° C | 100% | 1003.8 hPa | 0 mm | 2.24 m/s, 260° | - | - |
| 1778161103 | 11.11° C | 100% | 1003.7 hPa | 0 mm | 0.45 m/s, 269° | - | - |
| 1778160264 | 11.11° C | 100% | 1003.8 hPa | 0 mm | 0.89 m/s, 330° | - | - |
| 1778159419 | 11.11° C | 100% | 1004 hPa | 0 mm | 0 m/s | - | - |
| 1778158573 | 11.11° C | 100% | 1003.9 hPa | 0 mm | 0 m/s | - | - |
| 1778157730 | 11.11° C | 100% | 1003.8 hPa | 0 mm | 1.34 m/s, 322° | - | - |
| 1778156886 | 11.11° C | 100% | 1003.7 hPa | 0 mm | 1.34 m/s, 284° | - | - |
| 1778156044 | 11.11° C | 100% | 1003.7 hPa | 0 mm | 0 m/s | - | - |
| 1778155199 | 11.67° C | 100% | 1003.9 hPa | 0 mm | 0.45 m/s, 243° | - | - |
| 1778154356 | 11.67° C | 100% | 1003.8 hPa | 0 mm | 0 m/s | - | - |
| 1778153512 | 12.22° C | 100% | 1003.9 hPa | 0 mm | 0.45 m/s, 238° | - | - |
| 1778152672 | 12.78° C | 100% | 1003.9 hPa | 0 mm | 1.34 m/s, 198° | - | - |
| 1778151827 | 12.78° C | 100% | 1003.9 hPa | 0 mm | 0.89 m/s, 188° | - | - |
| 1778150987 | 12.78° C | 100% | 1004 hPa | 0 mm | 1.79 m/s, 293° | - | - |
| 1778150141 | 12.78° C | 100% | 1004 hPa | 0 mm | 1.34 m/s, 307° | - | - |
| 1778149301 | 12.78° C | 100% | 1004.1 hPa | 0 mm | 1.34 m/s, 315° | - | - |
| 1778148456 | 12.78° C | 100% | 1004.1 hPa | 0 mm | 1.34 m/s, 290° | - | - |
* Rain latest hour (hover to see other rain measurements)
** Current wind speed in m/s (hover to see current wind gust speed)